• MPC Preparation (Info)

  • MPEC 2010-F36 : 2010 FT

    The following Minor Planet Electronic Circular may be linked-to from your own Web pages, but must not otherwise be redistributed electronically.

    A form allowing access to any MPEC is at the bottom of this page.


    Read MPEC 2010-F35 Read MPEC 2010-F37


    M.P.E.C. 2010-F36                                Issued 2010 Mar. 18, 22:17 UT
    
         The Minor Planet Electronic Circulars contain information on unusual
             minor planets and routine data on comets.  They are published
       on behalf of Commission 20 of the International Astronomical Union by the
              Minor Planet Center, Smithsonian Astrophysical Observatory,
                              Cambridge, MA 02138, U.S.A.
    
                 Prepared using the Tamkin Foundation Computer Network
    
                                  MPC@CFA.HARVARD.EDU
           URL https://www.minorplanetcenter.org/iau/mpc.html  ISSN 1523-6714
    
                                        2010 FT
    
    Observations:
         K10F00T* C2010 03 18.43262 13 56 41.89 +38 19 08.3          20.2 V EF036703
         K10F00T  C2010 03 18.43838 13 56 44.52 +38 19 34.5          19.6 V EF036703
         K10F00T  C2010 03 18.44421 13 56 47.07 +38 20 01.9          19.7 V EF036703
         K10F00T  C2010 03 18.45000 13 56 49.66 +38 20 30.3          20.0 V EF036703
         K10F00T  C2010 03 18.47434 13 56 59.85 +38 22 13.6          20.2 R EF036H01
         K10F00T  C2010 03 18.48009 13 57 02.51 +38 22 39.9          19.7 R EF036H01
         K10F00T  C2010 03 18.48673 13 57 05.58 +38 23 10.1          19.8 R EF036H01
         K10F00T  C2010 03 18.49308 13 57 08.53 +38 23 38.8          19.8 R EF036H01
         K10F00T  C2010 03 18.49962 13 57 12.15 +38 24 22.9          19.7 R EF036926
         K10F00T  C2010 03 18.50644 13 57 15.37 +38 24 53.8          19.4 R EF036926
    
    Observer details:
    703 Catalina Sky Survey.  Observer A. Boattini.  Measurers J. D. Ahern,
        E. C. Beshore, A. Boattini, G. J. Garradd, A. R. Gibbs, A. D. Grauer,
        R. E. Hill, R. A. Kowalski, S. M. Larson, R. H. McNaught.  0.68-m Schmidt
        + CCD.
    926 Tenagra II Observatory.  Observers P. R. Holvorcem, M. Schwartz.  Measurer
        P. R. Holvorcem.  0.81-m f/7 Ritchey-Chretien + CCD.
    H01 Magdalena Ridge Observatory, Socorro.  Observers W. H. Ryan, E. V. Ryan.
        Measurer W. H. Ryan.  2.4-m f/8.9 reflector + CCD.
    
    Orbital elements:
    2010 FT                                                  Earth MOID = 0.0118 AU
    Epoch 2010 Jan. 4.0 TT = JDT 2455200.5                  MPC
    M 236.88088              (2000.0)            P               Q
    n   0.86035650     Peri.  249.01724     -0.16010409     +0.98684256
    a   1.0948394      Node    11.83718     -0.85991256     -0.12822187
    e   0.2087484      Incl.    6.31088     -0.48468244     -0.09849320
    P   1.15           H   25.4           G   0.15           U   9
    Residuals in seconds of arc
    100318 703  0.6-  0.8+    100318 H01  0.1+  0.1-    100318 926  0.4-  0.1+
    100318 703  0.4+  0.4-    100318 H01  0.2+  0.1-    100318 926  0.0   0.2+
    100318 703  0.0   0.7-    100318 H01  0.1+  0.1-
    100318 703  0.1+  0.4+    100318 H01  0.0   0.2-
    
    Ephemeris:
    2010 FT                  a,e,i = 1.09, 0.21, 6                   q = 0.8663
    Date    TT    R. A. (2000) Decl.     Delta      r     Elong.  Phase     V
    2010 03 15    13 34.60   +34 39.8    0.0518   1.033   137.9    40.2    20.6
    2010 03 17    13 45.65   +36 33.8    0.0436   1.026   135.4    42.9    20.3
    2010 03 19    14 02.27   +39 07.5    0.0355   1.019   131.6    46.9    20.0
    2010 03 21    14 30.31   +42 43.5    0.0278   1.012   125.6    53.1    19.6
    2010 03 23    15 25.74   +47 40.1    0.0207   1.006   115.2    63.7    19.2
    2010 03 25    17 31.10   +51 13.1    0.0150   0.999    95.6    83.6    19.2
    2010 03 27    20 37.63   +38 49.8    0.0128   0.992    62.6   116.7    20.5
    2010 03 29    22 25.22   +16 02.6    0.0157   0.985    33.2   146.3
    2010 03 31    23 13.18   +01 44.6    0.0218   0.978    21.0   158.5
    2010 04 02    23 38.20   -05 54.5    0.0292   0.972    19.6   159.8
    2010 04 04    23 53.31   -10 19.3    0.0372   0.965    21.5   157.7
    
    Sonia Keys                   (C) Copyright 2010 MPC           M.P.E.C. 2010-F36
    

    Read MPEC 2010-F35 Read MPEC 2010-F37


    MPEC number:

    Enter an MPEC number in one of the following forms:

    • 1997-B01 (the full form)
    • J97B01 (the packed version of the full form)
    • B01 (the abbreviated form)